{"data":{"norad_id":68081,"epoch":"2026-05-24T19:42:52.203456Z","epoch_age_seconds":83784,"freshness":"FRESH","line1":"1 68081U 26042N   26144.82143754  .00010001  00000+0  30672-3 0  9990","line2":"2 68081  53.1586 182.7877 0000976  86.0943 274.0171 15.34399132 13999","mean_motion":15.34399132,"eccentricity":9.76e-5,"inclination_deg":53.1586,"raan_deg":182.7877,"arg_perigee_deg":86.0943,"mean_anomaly_deg":274.0171,"bstar":0.00030672,"rev_number":1399,"period_min":93.847811170425,"perigee_km":462.038153828,"apogee_km":463.37348634648,"semimajor_km":6840.8428200872,"source":"CELESTRAK","updated_at":"2026-05-25T13:38:21.819647Z"}}